When you browse on this site, cookies collect data to enhance your experience and personalize the content and advertising you see.
Visit our Privacy Policy to learn more. By continuing to use the site, you agree to this use of cookies and data.
  • In Portugal
  • List of Countries
  • For 7 days
  • Water Temperature
  • Weather Map
  • Weather Widgets
  • user-avatar
    Login

    Hourly Weather Vanadzor

    Today, 24 February, Monday

    Time Temperature Precipitation Wind Pressure Humidity
    00:00 -1°C° 0 mm 2 mps 635 mmHg 84%
    01:00 -1°C° 0 mm 2 mps 634 mmHg 83%
    02:00 -1°C° 0 mm 2 mps 634 mmHg 83%
    03:00 -1°C° 0 mm 2 mps 634 mmHg 83%
    04:00 -2°C° 0 mm 2 mps 634 mmHg 83%
    05:00 -2°C° 0 mm 2 mps 634 mmHg 84%
    06:00 -2°C° 0 mm 2 mps 634 mmHg 84%
    07:00 -1°C° 0 mm 2 mps 634 mmHg 82%
    08:00 +1°C° 0 mm 2 mps 634 mmHg 80%
    09:00 +2°C° 0 mm 2 mps 634 mmHg 78%
    10:00 +2°C° 0 mm 3 mps 634 mmHg 75%
    11:00 +2°C° 0 mm 3 mps 633 mmHg 73%
    12:00 +3°C° 0 mm 3 mps 633 mmHg 70%
    13:00 +3°C° 0 mm 3 mps 632 mmHg 70%
    14:00 +3°C° 0 mm 3 mps 631 mmHg 70%
    15:00 +3°C° 0 mm 3 mps 631 mmHg 69%
    16:00 +2°C° 0 mm 3 mps 630 mmHg 74%
    17:00 +1°C° 0 mm 3 mps 630 mmHg 78%
    18:00 0°C° 0 mm 3 mps 629 mmHg 82%
    19:00 0°C° 0 mm 3 mps 629 mmHg 83%
    20:00 -1°C° 0 mm 3 mps 629 mmHg 83%
    21:00 -1°C° 0 mm 3 mps 629 mmHg 84%
    22:00 -1°C° 0 mm 3 mps 629 mmHg 84%
    23:00 -1°C° 0 mm 3 mps 628 mmHg 84%

    Tomorrow, 25 February, Tuesday

    Time Temperature Precipitation Wind Pressure Humidity
    00:00 -1°C° 0 mm 3 mps 628 mmHg 84%
    01:00 -1°C° 0 mm 3 mps 628 mmHg 84%
    02:00 -1°C° 0 mm 3 mps 627 mmHg 84%
    03:00 -1°C° 0 mm 3 mps 627 mmHg 84%
    04:00 -1°C° 0.1 mm 3 mps 627 mmHg 85%
    05:00 -1°C° 0.1 mm 2 mps 627 mmHg 86%
    06:00 +1°C° 0.1 mm 1 mps 627 mmHg 87%
    07:00 -1°C° 1.1 mm 2 mps 627 mmHg 86%
    08:00 -1°C° 1.1 mm 2 mps 627 mmHg 84%
    09:00 -1°C° 1.1 mm 2 mps 627 mmHg 83%
    10:00 -1°C° 0.7 mm 3 mps 627 mmHg 79%
    11:00 -2°C° 0.7 mm 3 mps 627 mmHg 76%
    12:00 -2°C° 0.7 mm 3 mps 627 mmHg 72%
    13:00 -3°C° 0.2 mm 4 mps 628 mmHg 71%
    14:00 -4°C° 0.2 mm 5 mps 628 mmHg 70%
    15:00 -4°C° 0.2 mm 5 mps 629 mmHg 69%
    16:00 -4°C° 0.2 mm 4 mps 629 mmHg 69%
    17:00 -6°C° 0.2 mm 3 mps 629 mmHg 68%
    18:00 -7°C° 0.2 mm 3 mps 629 mmHg 67%
    19:00 -8°C° 0 mm 3 mps 630 mmHg 68%
    20:00 -8°C° 0 mm 3 mps 630 mmHg 69%
    21:00 -9°C° 0 mm 3 mps 631 mmHg 70%
    22:00 -8°C° 0 mm 2 mps 631 mmHg 70%
    23:00 -9°C° 0 mm 2 mps 631 mmHg 70%

    Day after tomorrow, 26 February, Wednesday

    Time Temperature Precipitation Wind Pressure Humidity
    00:00 -9°C° 0 mm 2 mps 631 mmHg 70%
    01:00 -9°C° 0 mm 2 mps 631 mmHg 69%
    02:00 -9°C° 0 mm 2 mps 632 mmHg 67%
    03:00 -9°C° 0 mm 2 mps 632 mmHg 66%
    04:00 -8°C° 0 mm 1 mps 632 mmHg 63%
    05:00 -8°C° 0 mm 1 mps 631 mmHg 61%
    06:00 -9°C° 0 mm 1 mps 631 mmHg 59%
    07:00 -7°C° 0 mm 1 mps 632 mmHg 57%
    08:00 -4°C° 0 mm 1 mps 633 mmHg 55%
    09:00 -3°C° 0 mm 0 mps 634 mmHg 53%
    10:00 -2°C° 0 mm 0 mps 634 mmHg 52%
    11:00 0°C° 0 mm 1 mps 635 mmHg 51%
    12:00 +1°C° 0 mm 1 mps 635 mmHg 50%
    13:00 +1°C° 0 mm 1 mps 635 mmHg 53%
    14:00 +2°C° 0 mm 1 mps 635 mmHg 55%
    15:00 +2°C° 0 mm 1 mps 635 mmHg 57%
    16:00 0°C° 0 mm 1 mps 634 mmHg 61%
    17:00 -1°C° 0 mm 1 mps 634 mmHg 64%
    18:00 -3°C° 0 mm 1 mps 634 mmHg 68%
    19:00 -3°C° 0 mm 1 mps 634 mmHg 65%
    20:00 -5°C° 0 mm 2 mps 635 mmHg 61%
    21:00 -5°C° 0 mm 2 mps 635 mmHg 58%
    22:00 -5°C° 0 mm 2 mps 635 mmHg 56%
    23:00 -5°C° 0 mm 2 mps 635 mmHg 55%

    27 February, Thursday

    Time Temperature Precipitation Wind Pressure Humidity
    00:00 -5°C° 0 mm 2 mps 635 mmHg 53%
    01:00 -5°C° 0 mm 2 mps 635 mmHg 53%
    02:00 -6°C° 0 mm 3 mps 635 mmHg 52%
    03:00 -6°C° 0 mm 3 mps 635 mmHg 51%
    04:00 -6°C° 0 mm 3 mps 635 mmHg 50%
    05:00 -6°C° 0 mm 3 mps 635 mmHg 50%
    06:00 -5°C° 0 mm 3 mps 635 mmHg 49%
    07:00 -4°C° 0 mm 3 mps 635 mmHg 50%
    08:00 -1°C° 0 mm 3 mps 636 mmHg 52%
    09:00 0°C° 0 mm 3 mps 636 mmHg 53%
    10:00 +1°C° 0 mm 3 mps 636 mmHg 56%
    11:00 +3°C° 0 mm 3 mps 636 mmHg 59%
    12:00 +4°C° 0 mm 3 mps 636 mmHg 62%
    13:00 +4°C° 0 mm 3 mps 636 mmHg 62%
    14:00 +5°C° 0 mm 2 mps 636 mmHg 61%
    15:00 +5°C° 0 mm 2 mps 635 mmHg 61%
    16:00 +4°C° 0 mm 2 mps 635 mmHg 59%
    17:00 +1°C° 0 mm 3 mps 634 mmHg 56%
    18:00 0°C° 0 mm 3 mps 634 mmHg 54%
    19:00 0°C° 0 mm 3 mps 634 mmHg 52%
    20:00 0°C° 0 mm 3 mps 634 mmHg 50%
    21:00 -1°C° 0 mm 3 mps 634 mmHg 47%
    22:00 -1°C° 0 mm 3 mps 634 mmHg 48%
    23:00 -1°C° 0 mm 3 mps 633 mmHg 48%

    28 February, Friday

    Time Temperature Precipitation Wind Pressure Humidity
    00:00 -1°C° 0 mm 3 mps 633 mmHg 49%
    01:00 -1°C° 0 mm 3 mps 633 mmHg 48%
    02:00 -1°C° 0 mm 3 mps 632 mmHg 48%
    03:00 -1°C° 0 mm 3 mps 632 mmHg 48%
    04:00 -1°C° 0 mm 3 mps 631 mmHg 48%
    05:00 -1°C° 0 mm 3 mps 631 mmHg 48%
    06:00 -2°C° 0 mm 3 mps 630 mmHg 49%
    07:00 -1°C° 0 mm 3 mps 631 mmHg 50%
    08:00 0°C° 0 mm 3 mps 631 mmHg 51%
    09:00 +1°C° 0 mm 3 mps 631 mmHg 51%
    10:00 +2°C° 0 mm 3 mps 631 mmHg 52%
    11:00 +4°C° 0 mm 3 mps 631 mmHg 52%
    12:00 +5°C° 0 mm 3 mps 631 mmHg 53%
    13:00 +5°C° 0 mm 3 mps 630 mmHg 54%
    14:00 +5°C° 0 mm 3 mps 630 mmHg 54%
    15:00 +5°C° 0 mm 3 mps 629 mmHg 55%
    16:00 +3°C° 0 mm 3 mps 629 mmHg 57%
    17:00 +2°C° 0 mm 3 mps 628 mmHg 60%
    18:00 +1°C° 0 mm 3 mps 628 mmHg 62%
    19:00 +1°C° 0 mm 3 mps 628 mmHg 62%
    20:00 0°C° 0 mm 3 mps 628 mmHg 62%
    21:00 0°C° 0 mm 3 mps 628 mmHg 63%
    22:00 0°C° 0 mm 3 mps 628 mmHg 61%
    23:00 +1°C° 0 mm 2 mps 628 mmHg 60%

    29 February, Saturday

    Time Temperature Precipitation Wind Pressure Humidity
    00:00 -1°C° 0 mm 2 mps 628 mmHg 59%
    01:00 -1°C° 0 mm 2 mps 627 mmHg 59%
    02:00 -1°C° 0 mm 2 mps 627 mmHg 60%
    03:00 -1°C° 0 mm 2 mps 627 mmHg 60%
    04:00 -1°C° 0 mm 2 mps 627 mmHg 61%
    05:00 +1°C° 0 mm 1 mps 627 mmHg 62%
    06:00 +1°C° 0 mm 1 mps 627 mmHg 62%
    07:00 +2°C° 0 mm 1 mps 627 mmHg 64%
    08:00 +2°C° 0 mm 1 mps 627 mmHg 66%
    09:00 +3°C° 0 mm 1 mps 628 mmHg 67%
    10:00 +3°C° 0.6 mm 1 mps 628 mmHg 75%
    11:00 +3°C° 0.6 mm 1 mps 627 mmHg 82%
    12:00 +2°C° 0.6 mm 2 mps 627 mmHg 89%
    13:00 +1°C° 1.6 mm 2 mps 627 mmHg 91%
    14:00 +1°C° 1.6 mm 2 mps 627 mmHg 92%
    15:00 -1°C° 1.6 mm 2 mps 627 mmHg 94%
    16:00 -1°C° 0.9 mm 2 mps 628 mmHg 94%
    17:00 0°C° 0.9 mm 1 mps 629 mmHg 93%
    18:00 0°C° 0.9 mm 1 mps 629 mmHg 93%
    19:00 -2°C° 0.1 mm 1 mps 630 mmHg 91%
    20:00 -3°C° 0 mm 1 mps 630 mmHg 89%
    21:00 -6°C° 0 mm 2 mps 630 mmHg 87%
    22:00 -6°C° 0 mm 2 mps 631 mmHg 84%
    23:00 -7°C° 0 mm 2 mps 631 mmHg 80%
    Show more